TimeEDT,TemperatureF,Dew PointF,Humidity,Sea Level PressureIn,VisibilityMPH,Wind Direction,Wind SpeedMPH,Gust SpeedMPH,PrecipitationIn,Events,Conditions,WindDirDegrees,DateUTC
12:51 AM,59.0,57.0,93,30.07,4.0,NNE,16.1,-,N/A,,Overcast,20,2012-10-09 04:51:00
1:51 AM,60.1,57.9,93,30.06,2.5,North,15.0,-,0.00,,Overcast,10,2012-10-09 05:51:00
2:17 AM,60.8,57.2,88,30.07,3.0,NNE,12.7,-,0.01,Rain,Light Rain,20,2012-10-09 06:17:00
2:32 AM,60.8,57.2,88,30.07,2.5,North,11.5,19.6,0.01,Rain,Light Rain,10,2012-10-09 06:32:00
2:51 AM,60.1,57.9,93,30.07,2.0,NNE,12.7,-,0.02,Rain,Light Rain,20,2012-10-09 06:51:00
3:07 AM,60.8,57.2,88,30.07,1.8,North,11.5,-,0.01,Rain,Light Rain,10,2012-10-09 07:07:00
3:15 AM,60.8,57.2,88,30.07,2.0,NNE,11.5,-,0.02,Rain,Light Rain,20,2012-10-09 07:15:00
3:19 AM,60.8,57.2,88,30.07,1.8,North,9.2,-,0.03,Rain,Light Rain,10,2012-10-09 07:19:00
3:37 AM,59.0,57.2,94,30.07,2.5,North,11.5,-,0.06,Rain,Light Rain,350,2012-10-09 07:37:00
3:51 AM,59.0,57.9,96,30.07,2.0,North,10.4,-,0.09,Rain,Rain,10,2012-10-09 07:51:00
4:14 AM,60.8,57.2,88,30.07,2.0,North,9.2,-,0.03,Rain,Light Rain,10,2012-10-09 08:14:00
4:51 AM,60.1,59.0,96,30.06,2.5,North,11.5,18.4,0.09,Rain,Rain,360,2012-10-09 08:51:00
5:35 AM,60.8,57.2,88,30.06,4.0,North,12.7,-,0.07,Rain,Light Rain,360,2012-10-09 09:35:00
5:51 AM,60.1,57.9,93,30.06,5.0,North,16.1,21.9,0.07,Rain,Light Rain,360,2012-10-09 09:51:00
6:51 AM,60.1,57.9,93,30.06,7.0,North,15.0,-,0.01,,Overcast,10,2012-10-09 10:51:00
7:15 AM,60.8,57.2,88,30.07,2.0,North,17.3,25.3,N/A,,Overcast,360,2012-10-09 11:15:00
7:51 AM,60.1,57.0,90,30.08,2.0,North,15.0,23.0,0.00,,Overcast,10,2012-10-09 11:51:00
7:58 AM,60.8,57.2,88,30.08,3.0,North,15.0,-,N/A,,Overcast,360,2012-10-09 11:58:00
8:24 AM,60.8,57.2,88,30.09,1.0,North,12.7,-,N/A,,Overcast,360,2012-10-09 12:24:00
8:29 AM,60.8,57.2,88,30.09,1.5,North,15.0,21.9,N/A,,Overcast,360,2012-10-09 12:29:00
8:51 AM,59.0,57.0,93,30.10,1.5,North,13.8,23.0,N/A,,Overcast,360,2012-10-09 12:51:00
9:51 AM,59.0,57.0,93,30.10,2.0,North,13.8,23.0,N/A,,Overcast,350,2012-10-09 13:51:00
10:51 AM,60.1,57.0,90,30.10,2.0,North,12.7,20.7,N/A,,Overcast,360,2012-10-09 14:51:00
11:51 AM,60.1,57.0,90,30.09,1.5,North,12.7,-,N/A,,Overcast,360,2012-10-09 15:51:00
12:51 PM,60.1,57.9,93,30.08,1.5,North,11.5,19.6,0.01,,Overcast,360,2012-10-09 16:51:00
1:51 PM,61.0,59.0,93,30.06,10.0,North,10.4,-,N/A,,Overcast,10,2012-10-09 17:51:00
2:51 PM,62.1,59.0,90,30.06,6.0,North,10.4,-,N/A,,Overcast,360,2012-10-09 18:51:00
3:51 PM,62.1,59.0,90,30.05,8.0,North,10.4,-,0.00,,Overcast,360,2012-10-09 19:51:00
4:51 PM,62.1,59.0,90,30.05,10.0,North,11.5,-,0.00,,Overcast,10,2012-10-09 20:51:00
5:51 PM,63.0,59.0,87,30.05,10.0,North,8.1,-,N/A,,Overcast,360,2012-10-09 21:51:00
6:51 PM,63.0,60.1,90,30.04,10.0,North,9.2,-,N/A,,Overcast,360,2012-10-09 22:51:00
7:51 PM,62.1,60.1,93,30.05,10.0,NW,4.6,-,N/A,,Overcast,320,2012-10-09 23:51:00
8:51 PM,63.0,60.1,90,30.06,10.0,NNE,5.8,-,N/A,,Overcast,30,2012-10-10 00:51:00
9:33 PM,62.6,60.8,94,30.05,2.0,NNE,5.8,-,N/A,,Overcast,30,2012-10-10 01:33:00
9:51 PM,62.1,60.1,93,30.05,2.0,NE,5.8,-,N/A,,Overcast,50,2012-10-10 01:51:00
9:53 PM,62.6,60.8,94,30.05,2.0,NE,4.6,-,N/A,,Overcast,50,2012-10-10 01:53:00
10:51 PM,62.1,60.1,93,30.05,2.0,Calm,Calm,-,N/A,,Overcast,0,2012-10-10 02:51:00
10:58 PM,60.8,60.8,100,30.04,4.0,NW,3.5,-,N/A,,Overcast,320,2012-10-10 02:58:00
11:51 PM,61.0,60.1,97,30.04,4.0,NNW,3.5,-,N/A,,Overcast,330,2012-10-10 03:51:00